FFL1201 KBFI-KCOS

Flight info

Callsign FFL1201
Flight time N/A
Altitude 39000
Route CBAIN1 TAOMA J5 SUMMA J54 BKE J163 CHE
Aircraft CL60/M-SBDE1E2E3FGHIJ1J4J5J7M3RWXYZ/LB1V1D1

Departure

Time N/A
Airport King County International Airport - Boeing Field (KBFI)

Arrival

Time 2026-04-18 04:23
Airport City of Colorado Springs Municipal Airport (KCOS)
Time Latitude Longitude Altitude Speed Heading
2026-04-18 03:57 40.81281 -107.76336 39163 ft 519 kts 133°
2026-04-18 03:57 40.78955 -107.72666 39152 ft 520 kts 133°
2026-04-18 03:58 40.74328 -107.65382 39158 ft 520 kts 133°
2026-04-18 03:58 40.69687 -107.58094 39186 ft 520 kts 133°
2026-04-18 03:59 40.65058 -107.50844 39207 ft 520 kts 133°
2026-04-18 03:59 40.60406 -107.43574 39212 ft 520 kts 133°
2026-04-18 04:00 40.55743 -107.36301 39206 ft 521 kts 133°
2026-04-18 04:00 40.51157 -107.28997 39209 ft 522 kts 130°
2026-04-18 04:01 40.46956 -107.21208 39204 ft 523 kts 129°
2026-04-18 04:01 40.42711 -107.13482 39210 ft 523 kts 129°
2026-04-18 04:02 40.38488 -107.05756 39205 ft 524 kts 129°
2026-04-18 04:02 40.34248 -106.98038 39246 ft 524 kts 129°
2026-04-18 04:03 40.29970 -106.90278 39221 ft 525 kts 129°
2026-04-18 04:03 40.25700 -106.82534 39150 ft 524 kts 129°
2026-04-18 04:04 40.21452 -106.74857 39123 ft 523 kts 129°
2026-04-18 04:04 40.17177 -106.67157 39155 ft 523 kts 129°
2026-04-18 04:05 40.12912 -106.59486 39215 ft 523 kts 129°
2026-04-18 04:05 40.08623 -106.51792 39237 ft 524 kts 130°
2026-04-18 04:06 40.04343 -106.44137 39268 ft 524 kts 129°
2026-04-18 04:06 40.00033 -106.36445 39248 ft 524 kts 129°
2026-04-18 04:07 39.95728 -106.28770 38513 ft 521 kts 131°
2026-04-18 04:07 39.93578 -106.24942 37869 ft 517 kts 130°
2026-04-18 04:07 39.91492 -106.21235 37224 ft 513 kts 130°
2026-04-18 04:07 39.89382 -106.17497 36504 ft 511 kts 131°
2026-04-18 04:08 39.87273 -106.13765 35820 ft 513 kts 131°
2026-04-18 04:08 39.85186 -106.10063 35175 ft 510 kts 130°
2026-04-18 04:08 39.83103 -106.06383 34754 ft 500 kts 131°
2026-04-18 04:08 39.81039 -106.02747 34209 ft 498 kts 131°
2026-04-18 04:09 39.79018 -105.99192 33668 ft 495 kts 131°
2026-04-18 04:09 39.76954 -105.95561 32954 ft 495 kts 131°
2026-04-18 04:09 39.74920 -105.91985 32082 ft 498 kts 131°
2026-04-18 04:09 39.72866 -105.88380 31175 ft 500 kts 131°
2026-04-18 04:10 39.70831 -105.84808 30489 ft 497 kts 131°
2026-04-18 04:10 39.68764 -105.81181 29795 ft 499 kts 131°
2026-04-18 04:10 39.66708 -105.77588 29135 ft 502 kts 131°
2026-04-18 04:10 39.64611 -105.73927 28461 ft 503 kts 131°
2026-04-18 04:11 39.62538 -105.70305 27817 ft 497 kts 131°
2026-04-18 04:11 39.60496 -105.66730 27202 ft 494 kts 131°
2026-04-18 04:11 39.58463 -105.63182 26540 ft 490 kts 131°
2026-04-18 04:11 39.56457 -105.59690 25928 ft 484 kts 131°
2026-04-18 04:12 39.54470 -105.56238 25285 ft 479 kts 131°
2026-04-18 04:12 39.52491 -105.52801 24670 ft 474 kts 131°
2026-04-18 04:12 39.50519 -105.49376 24042 ft 469 kts 131°
2026-04-18 04:12 39.48601 -105.46049 23427 ft 464 kts 131°
2026-04-18 04:13 39.46688 -105.42734 22820 ft 459 kts 131°
2026-04-18 04:13 39.44776 -105.39426 22211 ft 454 kts 131°
2026-04-18 04:13 39.42900 -105.36189 21621 ft 450 kts 130°
2026-04-18 04:13 39.41032 -105.32967 21025 ft 445 kts 131°
2026-04-18 04:14 39.39201 -105.29809 20475 ft 440 kts 130°
2026-04-18 04:14 39.37373 -105.26655 19885 ft 435 kts 130°
2026-04-18 04:14 39.35575 -105.23559 19335 ft 431 kts 130°
2026-04-18 04:14 39.33779 -105.20472 18756 ft 426 kts 130°
2026-04-18 04:15 39.32005 -105.17428 18203 ft 422 kts 129°
2026-04-18 04:15 39.30248 -105.14417 17378 ft 421 kts 129°
2026-04-18 04:15 39.28544 -105.11495 16983 ft 407 kts 129°
2026-04-18 04:15 39.26838 -105.08570 16366 ft 406 kts 129°
2026-04-18 04:16 39.25161 -105.05698 15875 ft 402 kts 129°
2026-04-18 04:16 39.23480 -105.02825 15299 ft 397 kts 129°
2026-04-18 04:16 39.21835 -105.00017 14805 ft 392 kts 129°
2026-04-18 04:16 39.20189 -104.97212 14279 ft 387 kts 129°
2026-04-18 04:17 39.18596 -104.94495 13772 ft 378 kts 129°
2026-04-18 04:17 39.17028 -104.91806 13291 ft 368 kts 128°
2026-04-18 04:17 39.15544 -104.89191 12789 ft 358 kts 127°
2026-04-18 04:17 39.14087 -104.86646 12403 ft 345 kts 127°
2026-04-18 04:18 39.12717 -104.84265 12407 ft 323 kts 127°
2026-04-18 04:18 39.11396 -104.81974 12139 ft 314 kts 127°
2026-04-18 04:18 39.10116 -104.79764 12020 ft 306 kts 127°
2026-04-18 04:18 39.08825 -104.77541 12036 ft 312 kts 127°
2026-04-18 04:19 39.07522 -104.75296 12022 ft 311 kts 127°
2026-04-18 04:19 39.06198 -104.73111 11990 ft 311 kts 136°
2026-04-18 04:19 39.04377 -104.71681 11823 ft 305 kts 165°
2026-04-18 04:19 39.02285 -104.71211 11574 ft 303 kts 180°
2026-04-18 04:20 39.00190 -104.71210 11008 ft 301 kts 184°
2026-04-18 04:20 38.98109 -104.71314 10308 ft 298 kts 185°
2026-04-18 04:20 38.96057 -104.71460 9697 ft 288 kts 184°
2026-04-18 04:20 38.94142 -104.71560 8945 ft 267 kts 182°
2026-04-18 04:21 38.92388 -104.71584 8474 ft 241 kts 181°
2026-04-18 04:21 38.90837 -104.71581 8222 ft 206 kts 180°
2026-04-18 04:21 38.89475 -104.71564 7835 ft 188 kts 180°
2026-04-18 04:21 38.88222 -104.71574 7487 ft 173 kts 180°
2026-04-18 04:22 38.87104 -104.71577 7239 ft 153 kts 180°
2026-04-18 04:22 38.86089 -104.71581 6975 ft 143 kts 180°
2026-04-18 04:22 38.85106 -104.71585 6739 ft 138 kts 180°
2026-04-18 04:22 38.84147 -104.71587 6563 ft 138 kts 180°
2026-04-18 04:23 38.83189 -104.71595 6374 ft 140 kts 180°
2026-04-18 04:23 38.82217 -104.71590 6182 ft 138 kts 179°
2026-04-18 04:23 38.81328 -104.71589 6120 ft 115 kts 179°
2026-04-18 04:23 38.80850 -104.71590 6102 ft 37 kts 180°
2026-04-18 04:24 38.80676 -104.71594 6095 ft 14 kts 188°
2026-04-18 04:24 38.80622 -104.71693 6091 ft 14 kts 266°
2026-04-18 04:24 38.80623 -104.71803 6089 ft 12 kts 269°
2026-04-18 04:24 38.80622 -104.71905 6087 ft 9 kts 273°
2026-04-18 04:25 38.80673 -104.71960 6088 ft 11 kts 358°
2026-04-18 04:25 38.80747 -104.71957 6091 ft 10 kts
2026-04-18 04:25 38.80820 -104.71954 6094 ft 9 kts 359°
2026-04-18 04:25 38.80850 -104.72003 6094 ft 6 kts 273°
2026-04-18 04:26 38.80854 -104.72047 6094 ft 2 kts 315°
2026-04-18 04:26 38.80864 -104.72049 6094 ft 0 kts 357°